ON6OO-13 Weather Reports


time (UTC)temp
C
wind
direction
speed
KPH
gust
KPH
rain 1hr
cm
rain 24hr
cm
rain mn
cm
humidity
%
barometer
mb
20260503053814 12 198 0.0 0.0 0.00 0.00 0.00 99 1003.3
20260503052302 12 154 0.0 0.0 0.00 0.00 0.00 99 1003.3
20260503050750 12 123 0.0 0.0 0.00 0.00 0.00 99 1003.3
20260503045238 12 171 0.0 0.0 0.00 0.00 0.00 99 1003.3
20260503043726 12 172 0.0 0.0 0.00 0.00 0.00 99 1003.3
20260503042214 12 177 0.0 0.0 0.00 0.00 0.00 99 1003.7
20260503040702 12 202 0.0 0.0 0.00 0.00 0.00 99 1003.7
20260503035150 12 169 0.0 0.0 0.00 0.00 0.00 99 1003.7
20260503033638 12 159 0.0 0.0 0.00 0.00 0.00 99 1003.3
20260503032126 12 146 0.0 0.0 0.00 0.00 0.00 99 1003.3
20260503030614 12 212 0.0 0.0 0.00 0.00 0.00 99 1003.3
20260503025102 12 214 0.0 0.0 0.00 0.00 0.00 99 1003.7
20260503023550 12 220 0.0 0.0 0.00 0.00 0.00 99 1003.7
20260503022038 13 274 0.0 0.0 0.00 0.00 0.00 99 1004.0
20260503020526 13 140 0.0 0.0 0.00 0.00 0.00 99 1004.0
20260503015014 13 98 0.0 0.0 0.00 0.00 0.00 98 1004.4
20260503013502 13 204 0.0 0.0 0.00 0.00 0.00 98 1004.7
20260503011949 13 84 0.0 0.0 0.00 0.00 0.00 98 1004.0
20260503010437 13 78 0.0 0.0 0.00 0.00 0.00 98 1004.4
20260503004926 13 60 0.0 0.0 0.00 0.00 0.00 98 1004.4
20260503003414 13 98 0.0 0.0 0.00 0.00 0.00 98 1004.7
20260503001901 13 52 0.0 0.0 0.00 0.00 0.00 98 1004.7
20260503000349 13 111 0.0 0.0 0.00 0.00 0.00 98 1005.4
20260502234837 13 300 0.0 0.0 0.00 0.00 0.00 98 1005.0
20260502233326 13 323 0.0 0.0 0.00 0.00 0.00 98 1005.4
20260502231814 13 333 0.0 0.0 0.00 0.00 0.00 98 1005.4
20260502230301 13 357 1.6 3.2 0.00 0.00 0.00 98 1005.7
20260502224749 13 286 0.0 0.0 0.00 0.00 0.00 98 1005.0
20260502223237 13 225 0.0 0.0 0.00 0.00 0.00 98 1005.4
20260502221725 13 103 0.0 0.0 0.00 0.00 0.00 97 1005.0
20260502220213 13 158 0.0 0.0 0.00 0.00 0.00 97 1005.4
20260502214702 13 180 0.0 0.0 0.00 0.00 0.00 96 1005.4
20260502213150 14 81 0.0 0.0 0.00 0.00 0.00 95 1005.4
20260502211638 15 358 0.0 0.0 0.00 0.00 0.00 93 1005.4
20260502210126 15 26 9.7 16.1 0.00 0.00 0.00 91 1005.0
20260502204614 17 259 9.7 16.1 0.00 0.00 0.00 84 1006.7
20260502203102 18 283 16.1 22.5 0.00 0.00 0.00 78 1006.4
20260502201550 20 296 6.4 19.3 0.00 0.00 0.00 76 1006.4
20260502200038 20 201 0.0 0.0 0.00 0.00 0.00 71 1005.4
20260502194526 20 159 3.2 6.4 0.00 0.00 0.00 69 1005.0
20260502193014 20 74 0.0 0.0 0.00 0.00 0.00 72 1005.4
20260502191502 21 79 0.0 0.0 0.00 0.00 0.00 70 1005.0
20260502185950 21 337 0.0 0.0 0.00 0.00 0.00 66 1004.7
20260502184438 22 1 0.0 0.0 0.00 0.00 0.00 63 1005.4
20260502182926 23 289 0.0 0.0 0.00 0.00 0.00 60 1005.0
20260502181414 23 264 0.0 0.0 0.00 0.00 0.00 54 1005.0
20260502164302 23 201 6.4 11.3 0.00 0.00 0.00 50 1006.0
20260502162750 23 204 11.3 16.1 0.00 0.00 0.00 52 1006.0
20260502161238 24 213 9.7 11.3 0.00 0.00 0.00 52 1006.4
20260502151150 24 150 8.0 11.3 0.00 0.00 0.00 52 1007.1
20260502122437 22 299 6.4 6.4 0.00 0.00 0.00 61 1009.1
20260502120926 22 308 1.6 3.2 0.00 0.00 0.00 60 1009.4
20260502115414 22 180 9.7 16.1 0.00 0.00 0.00 62 1009.8
20260502113901 21 250 1.6 6.4 0.00 0.00 0.00 63 1010.1
20260502112349 21 243 9.7 16.1 0.00 0.00 0.00 63 1010.1
20260502110838 22 322 3.2 6.4 0.00 0.00 0.00 64 1010.1
20260502105326 22 183 8.0 11.3 0.00 0.00 0.00 62 1010.1
20260502103813 22 214 8.0 16.1 0.00 0.00 0.00 60 1010.1
20260502102305 21 235 4.8 6.4 0.00 0.00 0.00 62 1010.4
20260502100749 21 278 4.8 6.4 0.00 0.00 0.00 62 1010.4
20260502090701 20 196 3.2 3.2 0.00 0.00 0.00 66 1010.8
20260502070525 16 219 4.8 6.4 0.00 0.00 0.00 67 1011.8
20260502065013 16 190 6.4 11.3 0.00 0.00 0.00 68 1011.8
20260502063501 15 198 11.3 16.1 0.00 0.00 0.00 64 1011.8
20260502061949 13 210 4.8 6.4 0.00 0.00 0.00 66 1011.8
20260502060437 12 201 0.0 0.0 0.00 0.00 0.00 70 1011.8
20260502054925 12 178 0.0 0.0 0.00 0.00 0.00 68 1011.8